Regional Weather Roundup
Issued by NWS

Home | Current Version | Previous Version | Text Only | Print | Product List | Glossary On
Versions: 1 2 3 4 5 6 7 8 9 10 11 12 13 14 15 16 17 18 19 20 21 22 23 24 25 26 27 28 29 30 31 32 33 34 35 36 37 38 39 40 41 42 43 44 45 46 47 48 49 50
000
ASUS44 KOUN 161400
RWROK

WEATHER ROUNDUP FOR OKLAHOMA
NATIONAL WEATHER SERVICE NORMAN OK
800 AM CST TUE JAN 16 2018

NOTE: "FAIR" INDICATES FEW OR NO CLOUDS BELOW 12,000 FEET WITH NO
      SIGNIFICANT WEATHER AND/OR OBSTRUCTIONS TO VISIBILITY.

OKZ001>007-009>012-014-015-017-161500-
NORTHWEST OKLAHOMA AND THE PANHANDLE

CITY           SKY/WX    TMP DP  RH WIND       PRES   REMARKS
GAGE           CLOUDY    -1  -8  72 NW6       30.76R WCI -13
GUYMON         CLOUDY     2  -9  60 N7        30.69R WCI -11
ENID/WOODRING  CLEAR      5  -2  72 NW14      30.81R WCI -12
$$

OKZ016-021>023-033>039-044-045-161500-
SOUTHWEST OKLAHOMA

CITY           SKY/WX    TMP DP  RH WIND       PRES   REMARKS
LAWTON/REGL    CLOUDY     9  -3  58 N12       30.83R WCI  -6
LAWTON/FT SILL CLOUDY     8  -2  63 N12       30.80R WCI  -7
FREDERICK      CLOUDY     8  -4  58 N8        30.81R WCI  -4
CLINTON        CLOUDY     4  -7  60 N12       30.78R WCI -12
HOBART         CLOUDY     8  -5  55 NE13      30.80R WCI  -8
ALTUS AFB      CLOUDY     5  -7  57 N3        30.82R
$$

OKZ018>020-024>031-161500-
CENTRAL OKLAHOMA

CITY           SKY/WX    TMP DP  RH WIND       PRES   REMARKS
OKLAHOMA CITY  CLEAR      6  -3  66 N10       30.80R WCI  -9
OKC/WILEY POST CLEAR      6  -2  69 NW7       30.81R WCI  -6
OKC/TINKER AFB CLEAR      6  -4  64 N13       30.79R WCI -10
STILLWATER     PTCLDY     4  -3  73 NW7       30.82R WCI  -8
GUTHRIE        PTCLDY     6  -3  66 VRB3      30.83R
$$

OKZ008-013-054>072-161500-
NORTHEAST OKLAHOMA

CITY           SKY/WX    TMP DP  RH WIND       PRES   REMARKS
TULSA          PTCLDY     5  -2  72 N8        30.83R WCI  -8
TULSA/JONES    PTCLDY     7  -5  57 N8G17     30.85R WCI  -6
PONCA CITY     PTCLDY     3  -4  72 NW5       30.82R WCI  -6
BARTLESVILLE   PTCLDY     2  -5  72 CALM      30.85R
MUSKOGEE       PTCLDY     7  -2  66 N12       30.83S WCI  -8
$$

OKZ032-040>043-046>053-073>077-161500-
SOUTH CENTRAL/SOUTHEAST OKLAHOMA

CITY           SKY/WX    TMP DP  RH WIND       PRES   REMARKS
MCALESTER      PTCLDY     8  -2  63 N13       30.81R WCI  -8
$$





USA.gov is the U.S. government's official web portal to all federal, state and local government web resources and services.